GEFSMW_con_maxscp_144.txt.gz
SCP
4 4 4 4 3 2 2 2 2 2 2 2 2 1 1 1 1 1 0 0 0 0 0 0 0 0 0 0 0 0 0 0 0 0 0 0 0 0 0 0 0 0 0
4 4 4 4 3 3 3 2 2 2 2 2 2 1 1 1 1 1 0 0 0 0 0 0 0 0 0 0 0 0 0 0 0 0 0 0 0 0 0 0 0 0 0
4 4 4 4 3 3 3 3 2 2 2 2 1 1 1 1 1 1 1 0 0 0 0 0 0 0 1 1 0 0 0 0 0 0 0 0 0 0 0 0 0 0 0
3 4 4 4 4 4 3 3 2 2 2 2 2 1 1 1 1 1 1 0 0 0 0 1 1 1 1 1 1 0 0 0 0 0 0 0 0 0 0 0 0 0 0
3 3 4 5 4 3 3 3 2 2 2 2 2 2 2 1 1 1 1 1 1 1 1 1 1 1 1 1 0 0 0 0 0 0 0 0 0 0 0 0 0 0 0
3 4 4 4 4 3 3 2 2 2 2 2 2 2 2 2 1 1 1 1 1 1 1 1 1 1 0 0 0 0 0 0 0 0 0 0 0 0 0 0 0 0 0
3 4 4 4 3 3 2 2 2 2 2 2 2 2 2 2 1 1 1 1 1 1 1 1 1 1 0 0 0 0 0 0 0 0 0 0 0 0 0 0 0 0 0
2 3 3 3 3 2 2 2 2 2 2 2 1 2 2 2 1 1 1 1 1 1 1 1 1 1 1 0 0 0 0 0 0 0 0 0 0 0 0 0 0 0 0
2 2 2 3 3 2 2 2 2 2 2 1 1 1 2 1 1 1 1 1 1 1 1 1 1 1 1 1 0 0 0 0 0 0 0 0 0 0 0 0 0 0 0
2 2 2 2 2 2 2 2 2 2 2 1 1 1 1 1 1 1 1 1 0 0 0 0 1 1 1 0 0 0 0 0 0 0 0 0 0 0 0 0 0 0 0
3 2 2 2 2 2 2 3 2 2 1 1 1 1 1 1 1 1 1 0 0 0 0 0 1 1 1 1 0 0 0 0 0 0 0 0 0 0 0 0 0 0 0
3 3 2 2 2 2 2 2 2 1 1 1 1 1 1 1 1 1 1 1 0 0 1 1 1 1 1 1 1 1 1 0 0 0 0 0 0 0 0 0 0 0 0
3 3 2 2 2 2 2 2 1 1 1 1 1 0 0 0 0 0 1 1 1 1 1 1 1 1 1 1 1 1 1 1 1 1 0 0 0 0 0 0 0 0 0
3 3 2 2 2 1 1 1 1 1 1 1 1 1 0 0 0 0 0 1 1 1 1 1 1 1 1 1 1 1 1 1 1 1 1 1 1 0 0 0 1 1 1
2 2 2 2 1 1 1 1 1 0 0 1 1 1 0 0 0 0 0 1 1 1 1 1 1 1 1 1 1 1 1 1 1 1 1 1 1 0 0 0 1 1 1
2 2 2 2 1 1 1 1 1 0 1 1 1 0 0 0 0 0 1 1 1 1 1 1 1 1 1 1 1 1 1 1 1 1 1 1 0 0 0 0 0 0 0
2 2 2 1 1 1 1 1 1 0 0 1 0 0 0 0 0 0 0 1 1 1 1 1 1 1 1 1 1 0 1 1 1 1 1 1 0 0 0 0 0 0 0
2 2 1 1 1 1 1 1 0 0 0 0 0 0 0 0 0 1 1 0 1 1 1 1 1 1 1 0 0 0 0 0 0 0 0 0 0 0 0 0 0 0 0
2 2 1 1 1 0 0 0 0 0 0 0 0 0 0 0 0 0 1 0 0 0 1 1 1 1 0 0 0 0 0 0 0 0 0 0 0 0 0 0 0 0 0
2 1 1 1 0 0 0 0 0 0 0 0 0 0 0 0 0 0 0 0 0 0 0 0 0 0 0 0 0 0 0 0 0 0 0 0 0 0 0 0 0 0 0
1 1 1 1 0 0 0 0 0 0 0 0 0 0 0 0 0 0 0 0 0 0 0 0 0 0 0 0 0 0 0 0 0 0 0 0 0 0 0 0 0 0 0
1 1 1 1 0 0 0 0 0 0 0 1 0 0 0 0 0 0 0 0 0 0 0 0 0 0 0 0 0 0 0 0 0 0 0 0 0 0 0 0 0 0 0
2 1 1 1 0 0 0 0 0 0 0 1 0 0 0 0 0 0 0 0 0 0 0 0 0 0 0 0 0 0 0 0 0 0 0 0 0 0 0 0 0 0 0
2 2 1 1 1 0 0 0 0 0 0 1 0 0 0 0 0 0 0 0 0 0 0 0 0 0 0 0 0 0 0 0 0 0 0 0 0 0 0 0 0 0 0
2 2 1 1 1 0 0 0 0 0 0 1 0 0 0 0 0 0 0 0 0 0 0 0 0 0 0 0 0 0 0 0 0 0 0 0 0 0 0 0 0 0 0
2 1 1 1 1 0 0 0 0 0 0 1 1 1 0 0 0 0 0 0 0 0 0 0 0 0 0 0 0 0 0 0 0 0 0 0 0 0 0 0 0 0 0

GEFSMW_con_maxscp_150.txt.gz
SCP
4 4 4 4 3 3 3 3 3 3 4 4 4 4 3 3 2 2 1 1 1 1 1 1 1 1 1 1 1 1 1 1 1 1 1 0 0 0 0 0 0 0 0
4 4 5 4 4 3 3 3 3 3 3 3 3 3 3 2 2 2 1 1 1 1 1 1 1 1 1 1 2 2 1 1 1 1 1 1 0 0 0 0 0 0 0
4 4 5 4 4 4 4 4 4 3 3 3 3 3 2 2 2 2 1 1 1 1 1 1 1 1 1 2 2 2 2 1 1 1 1 1 1 1 1 0 0 0 1
4 4 4 4 4 4 4 4 4 4 3 3 3 3 2 2 2 2 1 1 1 1 1 1 1 1 1 1 2 2 1 1 1 1 1 1 1 1 1 1 0 1 1
3 3 3 3 3 4 4 5 5 4 3 3 2 2 2 2 2 1 1 1 2 1 1 1 1 1 1 1 1 1 1 1 1 1 1 1 1 1 1 1 1 1 1
3 3 3 3 3 3 4 5 5 5 4 3 2 2 2 2 2 2 2 2 2 2 2 1 1 1 1 1 1 1 1 1 1 1 1 1 1 1 1 1 1 1 1
2 3 3 3 3 3 4 4 5 5 3 2 2 2 2 2 2 2 2 2 2 2 2 2 1 1 1 1 1 1 1 1 1 1 1 1 1 2 1 1 1 1 1
2 2 3 3 3 4 4 4 5 5 3 2 2 2 2 2 2 2 2 2 2 2 2 2 2 2 2 2 2 2 1 1 1 1 1 2 2 2 2 2 2 1 1
3 2 3 3 4 4 4 4 4 4 3 2 2 2 2 2 2 2 2 1 1 1 1 2 2 2 3 2 2 2 2 1 1 1 1 2 2 2 2 2 2 2 2
3 3 3 3 4 4 4 3 3 3 3 2 2 2 2 2 2 1 1 1 1 1 1 1 2 2 3 3 3 2 2 1 1 1 1 1 2 2 2 2 2 2 2
3 4 4 4 4 3 3 3 3 3 3 3 2 2 1 1 1 1 1 1 1 1 2 2 2 2 3 3 3 2 2 2 2 2 1 1 2 2 2 2 2 2 2
4 4 5 5 4 3 2 2 3 3 3 3 2 2 2 1 1 1 1 1 1 1 2 2 2 2 2 2 2 2 2 2 2 2 2 2 2 2 2 3 3 2 2
4 5 5 4 3 3 2 2 2 2 2 2 2 2 2 2 1 1 1 1 1 1 1 1 1 2 2 2 2 2 2 2 2 2 3 3 3 3 3 3 3 3 2
4 5 4 4 3 2 2 2 2 1 1 2 2 2 2 1 1 1 1 1 1 1 1 1 1 2 2 2 2 2 2 2 3 3 3 3 3 3 3 3 3 3 2
3 4 4 3 3 2 2 2 2 2 2 2 2 2 1 1 1 1 1 1 1 1 1 1 1 2 2 2 3 3 3 3 3 3 3 3 3 3 2 2 2 2 2
3 3 4 3 3 3 3 3 3 2 2 2 2 1 1 1 1 1 1 1 1 1 1 1 2 2 2 2 2 2 3 3 3 3 3 2 2 1 1 1 1 1 1
4 4 4 4 4 3 3 3 3 2 2 2 1 1 1 1 1 1 1 1 1 1 1 1 2 2 2 1 1 1 2 2 3 3 2 2 1 1 1 0 0 0 0
5 4 4 4 4 3 3 3 2 2 2 2 1 1 1 1 1 1 1 1 1 1 1 1 1 1 1 0 0 0 0 1 1 1 1 1 1 1 1 1 1 1 1
6 5 4 4 4 3 3 2 2 2 2 1 1 1 1 1 1 1 1 2 2 1 1 1 1 1 1 0 0 0 0 0 0 1 1 1 1 1 0 1 1 1 1
7 6 5 4 4 4 4 3 2 2 1 1 1 1 1 1 1 1 1 1 1 1 1 1 1 1 1 0 0 0 0 1 1 1 1 1 1 0 0 1 1 1 1
7 7 6 6 6 6 5 3 2 1 1 1 1 1 1 1 1 1 1 1 1 1 1 1 1 1 1 1 0 0 0 1 1 1 1 1 1 0 0 1 1 1 1
7 8 8 9 8 7 5 3 2 2 1 1 1 1 1 1 1 1 1 1 2 2 2 1 1 1 1 1 0 0 0 1 1 1 1 1 1 0 0 0 1 1 1
7 8 10 10 8 6 4 3 2 2 1 1 1 1 1 2 2 1 1 2 2 2 2 1 1 1 1 1 0 0 0 0 0 1 1 1 0 0 0 0 0 0 0
7 9 9 9 7 5 4 3 2 1 1 1 1 1 1 1 1 1 1 1 2 1 1 1 1 2 1 1 0 0 0 0 0 0 0 0 0 0 0 0 0 0 0
8 8 7 6 4 3 3 2 2 2 1 1 1 1 1 2 2 2 1 1 1 1 1 1 2 2 2 1 0 0 0 0 0 0 0 0 0 0 0 0 0 0 0
8 7 6 4 3 3 2 2 2 2 2 2 2 2 2 2 2 2 1 1 1 0 0 1 1 2 1 1 0 0 0 0 0 0 0 0 0 0 0 0 0 0 0

GEFSMW_con_maxscp_156.txt.gz
SCP
7 8 10 10 9 8 7 6 5 5 5 5 5 5 5 6 6 4 4 4 3 3 2 1 1 1 1 1 1 1 1 1 1 1 1 0 0 1 1 1 1 1 1
7 8 8 8 8 8 7 6 5 5 5 5 5 5 6 6 5 4 3 3 3 2 2 1 1 1 1 2 2 1 1 1 1 1 1 0 0 0 1 1 1 1 1
7 7 7 7 8 8 7 6 6 6 5 5 5 5 6 6 4 3 3 2 2 2 2 2 1 1 1 2 2 1 1 1 1 1 1 1 1 0 1 1 1 1 1
8 8 7 6 8 8 7 6 7 7 6 5 5 6 6 5 4 3 2 2 2 2 2 2 2 1 1 1 1 1 1 1 1 1 1 1 1 1 1 1 1 1 2
7 7 6 6 7 7 7 6 7 7 7 6 5 5 5 4 4 3 2 2 2 2 2 2 2 2 1 1 1 2 2 1 1 1 1 1 1 1 1 1 1 1 1
7 7 6 6 6 7 7 7 8 8 7 6 5 5 4 4 3 3 2 2 2 2 2 2 3 3 2 2 2 2 2 2 1 1 1 1 1 1 1 1 1 1 1
7 7 6 6 6 7 7 8 9 8 7 6 6 5 4 3 2 2 2 2 2 2 2 2 3 3 3 2 2 2 2 2 2 2 2 2 1 1 1 1 1 1 1
6 6 6 5 5 6 7 8 9 8 7 6 6 5 4 2 2 2 2 2 2 2 2 2 3 3 3 2 2 2 2 2 2 2 2 2 2 2 1 1 1 1 1
5 5 5 5 4 5 6 7 8 7 6 5 5 4 3 2 1 1 1 1 1 1 2 2 2 2 2 2 2 2 2 2 2 2 2 2 2 2 2 2 2 1 1
4 4 4 4 4 4 5 6 6 6 5 4 4 3 2 2 1 1 1 1 1 1 2 2 2 2 2 2 2 2 2 2 2 2 2 2 2 2 2 2 2 2 2
4 4 4 4 5 5 6 6 5 4 4 4 3 3 2 2 2 2 2 2 2 2 2 2 2 2 2 2 2 2 2 2 2 2 3 3 2 2 3 3 3 3 2
4 5 6 6 5 6 6 5 4 3 3 3 3 3 2 2 2 2 2 2 2 2 2 2 2 2 2 2 2 2 2 2 2 2 2 3 3 3 3 4 3 3 3
5 7 8 7 7 7 7 6 4 3 3 3 3 3 2 3 3 3 3 2 2 2 2 2 2 2 2 2 2 3 2 2 2 2 2 2 2 3 3 3 3 3 2
6 7 7 8 8 7 7 5 4 3 3 3 3 3 3 3 3 3 3 3 3 2 2 2 2 2 2 2 2 3 2 2 1 1 1 2 2 2 2 2 2 2 2
7 7 7 7 7 7 6 5 4 4 4 5 4 3 3 3 3 3 3 3 3 3 3 2 2 2 2 1 2 2 2 1 1 1 1 1 1 1 1 1 1 1 1
8 7 6 6 7 7 6 5 5 6 6 6 5 3 3 3 2 2 2 2 3 3 3 3 2 2 1 1 1 1 1 1 1 1 1 1 1 1 1 1 0 1 1
9 8 7 8 8 8 8 7 6 7 6 5 4 3 3 3 3 2 2 2 3 3 3 3 2 2 1 1 0 1 1 1 1 1 1 1 1 0 0 0 0 0 0
8 8 9 9 9 9 8 6 6 5 5 4 3 3 3 3 3 3 3 3 3 3 3 3 3 2 2 1 0 0 0 1 1 1 1 1 1 0 0 0 0 1 1
9 10 10 10 9 7 6 4 4 3 3 3 3 3 3 3 3 4 3 3 3 3 2 2 3 3 2 1 0 0 0 1 1 1 1 1 1 0 0 1 1 1 1
9 10 11 10 9 7 5 4 3 3 3 3 4 4 3 3 3 4 4 3 3 3 3 2 3 3 2 1 0 0 0 1 1 1 1 1 1 0 0 1 1 1 1
9 9 10 10 10 9 6 5 4 3 3 4 4 4 3 2 3 3 3 3 3 3 3 2 2 3 2 1 0 0 0 1 1 1 1 1 0 0 0 0 1 1 1
9 10 13 14 12 10 7 6 5 4 4 4 4 3 2 2 2 2 2 3 3 2 2 2 2 2 2 1 0 0 0 0 0 1 1 0 0 0 0 0 0 0 0
11 13 15 14 12 9 8 7 6 5 5 4 4 3 2 2 1 1 2 2 2 2 2 1 1 2 2 1 1 0 0 0 0 0 0 0 0 0 0 0 0 0 0
13 13 12 11 10 8 8 8 7 6 6 5 4 3 2 2 2 2 1 2 2 2 1 1 1 1 1 1 1 0 0 0 0 0 0 0 0 0 0 0 0 0 0
12 11 10 10 9 8 8 8 9 8 8 6 4 3 2 2 2 2 2 2 2 1 1 1 1 1 1 1 0 0 0 0 0 0 0 0 0 0 0 0 0 0 0
11 10 9 10 9 8 8 9 10 11 10 7 4 3 3 3 2 2 2 1 1 1 1 1 1 1 0 0 0 0 0 0 0 0 0 0 0 0 0 0 0 0 0

GEFSMW_con_maxscp_162.txt.gz
SCP
8 9 9 8 7 6 6 6 5 5 3 3 2 2 2 2 2 2 1 1 1 1 1 1 1 1 1 0 0 0 0 0 0 0 0 0 0 0 0 0 0 0 0
8 8 8 7 6 6 6 6 6 5 4 3 2 2 2 2 2 2 1 1 1 1 1 1 0 0 0 0 0 0 0 0 0 0 0 0 0 0 0 0 0 0 0
7 7 7 7 6 6 6 6 6 6 5 3 3 2 2 2 2 2 1 1 1 1 1 1 0 0 0 0 0 0 0 0 0 0 0 0 0 0 0 0 0 0 0
7 6 6 6 7 6 6 6 6 7 6 4 3 3 3 2 2 2 1 1 1 1 1 1 1 0 0 0 0 0 0 0 0 0 0 0 0 0 0 0 0 0 0
7 6 6 6 6 6 6 6 7 7 6 4 3 3 2 2 2 1 1 1 1 1 1 1 1 0 0 0 0 0 0 0 0 0 0 0 0 0 0 0 0 0 0
8 8 8 7 6 6 7 7 7 8 7 5 4 3 2 1 1 1 1 1 1 1 1 1 1 1 0 0 0 0 0 0 0 0 0 0 0 0 0 0 0 0 0
11 10 9 7 6 6 7 8 8 8 7 6 5 3 2 1 1 1 1 1 1 1 1 1 1 0 1 0 0 0 1 1 1 1 1 0 0 0 0 0 0 0 0
10 9 7 6 5 6 7 8 8 8 8 6 5 3 2 1 1 1 1 1 1 1 1 1 0 0 1 1 1 1 1 1 1 1 1 1 0 0 0 0 0 0 0
5 5 5 5 4 5 7 8 8 8 7 6 4 3 2 1 1 1 1 1 1 1 1 1 1 1 1 1 1 1 1 1 1 1 1 1 1 1 0 0 0 0 0
3 3 3 3 4 5 6 7 7 7 6 5 4 3 2 2 1 1 1 1 1 1 1 1 1 1 1 1 1 1 1 1 1 1 1 1 1 1 1 1 1 1 0
4 3 3 3 3 4 5 6 6 6 5 4 3 3 2 2 1 1 1 1 1 1 1 1 1 1 1 1 1 1 1 1 1 1 1 1 1 1 1 1 1 1 1
4 4 3 3 3 3 4 5 5 5 4 3 3 2 2 2 1 1 1 1 1 1 1 1 1 1 1 1 1 1 1 1 1 1 1 1 1 1 1 1 1 1 1
5 5 4 3 3 3 3 4 4 4 3 3 3 2 2 2 1 1 1 1 1 1 1 1 1 1 1 1 1 1 1 1 1 1 1 1 1 1 1 1 1 1 1
6 5 4 4 3 3 3 3 4 4 3 3 4 4 3 2 2 2 2 1 1 1 1 1 1 1 1 1 1 1 0 0 0 1 1 1 1 1 1 1 1 1 1
5 5 4 4 4 4 4 4 4 4 3 3 4 5 4 3 2 2 2 1 1 1 1 1 1 1 1 1 0 0 0 0 0 0 1 1 0 0 0 0 0 0 0
5 5 5 5 5 5 5 4 3 3 3 3 4 5 4 3 2 2 1 1 1 1 1 1 1 1 1 0 0 0 0 0 0 0 0 0 0 0 0 0 0 0 0
6 6 5 5 5 5 4 3 2 2 2 2 3 3 3 3 2 2 1 1 1 1 1 1 0 1 0 0 0 0 0 0 0 0 0 0 0 0 0 0 0 0 0
7 6 6 5 5 4 3 2 2 2 1 1 1 2 2 3 3 2 2 1 1 1 1 1 1 0 0 0 0 0 0 0 0 0 0 0 0 0 0 0 0 0 0
8 8 7 5 4 4 4 3 2 2 2 1 1 2 2 3 3 3 2 1 1 1 1 1 0 0 0 0 0 0 0 0 0 0 0 0 0 0 0 0 0 0 0
9 9 8 6 5 4 4 3 3 2 2 2 1 1 2 3 3 2 1 0 0 0 0 0 0 0 0 0 0 0 0 0 0 0 0 0 0 0 0 0 0 0 0
11 10 8 6 5 5 4 4 3 3 2 2 2 1 2 2 2 1 1 0 0 0 0 0 0 0 0 0 0 0 0 0 0 0 0 0 0 0 0 0 0 0 0
12 11 8 6 5 5 5 5 4 4 3 2 2 1 1 1 1 1 1 1 1 0 0 0 0 0 0 0 0 0 0 0 0 0 0 0 0 0 0 0 0 0 0
12 10 8 5 4 5 6 6 5 4 3 2 2 2 1 1 1 1 1 1 1 1 0 0 0 0 0 0 0 0 0 0 0 0 0 0 0 0 0 0 0 0 0
9 8 6 5 4 4 5 4 4 3 3 3 2 2 1 1 1 1 1 1 1 1 0 0 1 0 0 0 0 0 0 0 0 0 0 0 0 0 0 0 0 0 0
6 6 5 4 3 4 4 4 4 4 4 3 3 2 1 1 1 1 1 1 1 1 0 0 0 0 0 0 0 0 0 0 0 0 0 0 0 0 0 0 0 0 0
5 5 4 3 3 3 4 4 4 4 5 4 3 2 1 1 1 1 1 1 1 0 0 0 0 0 0 0 0 0 0 0 0 0 0 0 0 0 0 0 0 0 0

GEFSMW_con_maxscp_168.txt.gz
SCP
4 4 4 3 3 2 2 2 2 2 2 1 1 1 1 1 1 1 1 1 1 1 1 1 0 0 0 0 0 0 0 0 0 0 0 0 0 0 0 0 0 0 1
5 5 4 3 2 2 2 2 2 2 2 2 2 1 1 1 1 1 1 1 1 1 1 1 0 0 0 0 0 0 0 0 0 0 0 0 0 0 0 0 0 0 0
5 4 4 3 2 2 2 2 2 2 2 2 2 2 2 1 1 1 1 1 1 1 1 1 0 0 0 0 0 0 0 0 0 0 0 0 0 0 0 0 0 0 0
4 4 4 3 3 2 2 2 2 3 3 3 3 3 2 1 1 1 1 1 1 1 1 1 0 0 0 0 0 0 0 0 0 0 0 0 0 0 0 0 0 0 0
4 4 4 3 3 2 2 3 3 3 3 3 3 2 2 1 1 1 1 1 1 1 1 1 0 0 0 0 0 0 0 0 0 0 0 0 0 0 0 0 0 0 0
4 4 4 3 2 2 3 4 4 4 3 3 3 2 2 1 1 1 1 1 1 0 0 0 0 0 0 0 0 0 0 0 0 0 0 0 0 0 0 0 0 0 0
3 4 4 3 2 2 3 4 5 4 4 4 3 3 2 2 1 1 1 1 0 0 0 0 0 0 0 0 0 0 1 1 1 1 1 1 1 0 0 0 0 0 0
3 3 2 2 2 2 2 3 3 3 4 4 4 3 2 2 1 1 1 1 0 0 0 0 0 0 0 0 1 1 1 1 1 1 1 1 1 1 0 0 0 0 0
2 2 2 2 2 2 2 2 2 3 3 4 4 3 3 2 1 1 1 1 1 0 0 0 0 0 1 1 1 1 1 1 1 1 1 1 1 1 1 0 0 0 0
2 2 2 2 3 3 3 2 2 2 3 3 3 3 3 3 2 1 1 1 1 1 1 1 1 1 1 1 1 1 1 1 1 1 1 1 1 1 1 1 1 1 1
2 2 2 3 4 4 3 2 2 2 3 3 3 3 3 3 2 2 2 2 2 1 1 1 1 1 1 0 0 0 0 0 1 1 1 1 1 1 1 1 1 1 1
2 2 2 4 5 3 2 2 2 2 2 2 3 3 3 3 2 2 2 2 2 2 2 1 1 1 1 0 0 0 0 0 0 0 1 1 1 1 1 1 1 1 1
2 2 2 3 4 3 2 3 4 3 2 3 3 3 3 2 2 2 2 3 3 3 2 2 1 1 1 1 0 0 0 0 0 1 1 0 1 1 1 1 1 1 1
2 2 2 3 3 2 2 4 4 3 3 3 3 3 2 2 2 2 2 3 4 3 2 1 1 1 1 1 1 1 1 1 1 1 1 0 0 0 1 0 0 0 0
2 2 2 2 3 3 3 3 3 3 2 3 3 2 2 2 2 2 2 3 4 3 1 1 1 1 1 1 1 1 1 1 1 1 0 0 0 0 0 0 0 0 0
3 3 3 3 3 3 3 2 2 2 2 2 2 2 2 2 1 1 1 2 2 2 1 1 1 1 1 1 0 0 0 0 0 0 0 0 0 0 0 0 0 0 0
3 3 3 4 4 4 3 2 2 2 1 2 2 2 2 2 2 1 1 1 1 1 1 1 1 1 0 0 0 0 0 0 0 0 0 0 0 0 0 0 0 0 0
4 4 4 5 5 4 3 2 2 2 2 1 1 1 1 1 1 1 1 1 1 1 1 1 1 0 0 0 0 0 0 0 0 0 0 0 0 0 0 0 0 0 0
5 5 6 6 6 5 3 2 2 2 2 2 1 1 1 1 1 1 1 1 1 1 1 0 0 0 0 0 0 0 0 0 0 0 0 0 0 0 0 0 0 0 0
7 8 8 8 7 5 3 3 2 2 2 2 2 2 1 1 1 1 1 1 1 1 0 0 0 0 0 0 0 0 0 0 0 0 0 0 0 0 0 0 0 0 0
8 9 9 8 6 5 3 3 2 2 2 2 2 1 1 1 1 1 1 1 1 1 1 1 0 0 0 0 0 0 0 0 0 0 0 0 0 0 0 0 0 0 0
9 9 9 7 5 4 3 3 2 2 2 1 1 1 1 1 1 1 1 1 1 1 1 0 0 0 0 0 0 0 0 0 0 0 0 0 0 0 0 0 0 0 0
8 8 8 6 4 4 3 3 2 2 2 2 1 1 1 1 1 1 1 1 1 1 0 0 0 0 0 0 0 0 0 0 0 0 0 0 0 0 0 0 0 0 0
7 7 7 6 4 3 3 2 2 2 2 2 2 2 1 1 1 1 1 1 1 0 0 0 0 0 0 0 0 0 0 0 0 0 0 0 0 0 0 0 0 0 0
5 6 6 5 4 3 2 2 2 2 2 2 2 2 2 2 1 1 0 0 0 0 0 0 0 0 0 0 0 0 0 0 0 0 0 0 0 0 0 0 0 0 0
4 5 5 4 3 2 2 2 2 2 2 1 1 2 2 2 1 1 0 0 0 0 0 0 0 0 0 0 0 0 0 0 0 0 0 0 0 0 0 0 0 0 0

GEFSMW_con_maxscp_174.txt.gz
SCP
4 4 4 4 4 5 5 6 6 5 3 2 2 1 1 1 1 1 1 0 0 0 1 1 1 1 1 1 1 1 1 1 1 1 1 1 0 1 1 1 1 1 1
4 4 4 4 4 5 5 6 6 5 4 2 2 1 1 1 1 1 1 1 1 1 1 1 1 1 1 1 1 1 1 1 1 1 1 1 1 1 1 1 1 1 1
4 4 4 4 4 4 4 5 6 5 4 3 2 2 2 2 1 1 1 1 1 1 1 1 1 1 1 1 1 1 1 1 1 1 1 1 1 1 1 1 1 1 1
3 3 3 3 3 3 4 5 5 4 3 3 3 3 3 2 2 1 1 1 1 1 1 1 1 1 1 1 1 1 1 1 1 1 2 1 1 1 1 1 1 1 1
3 3 3 3 3 3 3 4 4 4 4 4 4 4 3 2 2 2 1 1 1 1 1 1 1 1 1 1 1 1 1 1 1 1 2 2 2 2 2 1 1 1 1
3 3 3 3 2 2 3 3 4 4 4 4 4 4 3 3 2 2 2 1 1 1 1 1 1 1 1 1 1 1 1 1 1 2 2 2 2 2 2 2 1 1 1
3 3 2 2 2 2 3 3 3 3 3 4 4 4 3 3 3 3 2 2 1 1 1 1 1 1 1 1 1 1 1 1 2 2 2 2 2 2 2 2 2 1 1
3 3 2 2 2 2 3 3 2 3 3 3 3 4 3 3 3 3 2 2 2 2 2 2 2 2 2 2 2 2 2 2 2 2 2 2 2 2 2 2 2 2 1
2 2 2 2 2 2 3 3 3 3 3 3 3 3 3 2 2 2 2 2 2 3 2 2 3 3 3 3 3 3 3 3 3 2 2 2 2 2 2 2 2 2 1
2 2 2 2 2 3 4 4 3 3 3 3 2 2 2 2 2 2 2 2 3 3 3 3 3 4 4 4 4 4 4 3 3 3 2 2 2 1 2 2 2 2 1
2 2 3 3 3 4 4 4 3 3 3 2 2 2 2 2 2 2 2 2 3 3 3 4 4 5 5 5 5 5 4 3 3 3 2 2 2 1 2 2 2 1 1
3 3 3 3 3 4 4 3 2 2 2 2 2 2 2 2 2 2 3 3 3 3 4 5 5 5 5 5 5 4 3 3 3 3 2 2 2 2 2 2 2 1 1
3 3 3 3 3 3 3 2 2 2 2 2 2 2 2 2 3 3 3 3 3 4 4 4 4 4 4 4 3 3 2 2 3 2 2 2 2 2 2 2 1 1 1
4 4 4 4 4 4 3 3 2 2 2 2 2 2 2 3 3 3 3 3 3 3 4 3 3 3 3 2 2 2 2 2 2 2 2 2 2 2 2 2 2 1 1
4 5 5 5 5 4 4 4 3 3 3 3 2 2 2 3 3 3 3 3 2 2 2 2 2 1 1 1 1 1 1 1 2 2 2 2 1 1 1 1 1 1 1
5 6 6 6 6 6 5 4 4 3 3 3 2 2 2 2 3 3 3 2 2 2 2 2 1 1 1 1 1 1 1 1 2 2 2 2 1 1 1 1 1 1 1
6 6 7 7 8 7 6 5 4 3 3 2 2 2 2 2 2 2 2 2 2 2 2 2 2 1 1 1 1 1 1 1 2 2 3 2 1 1 1 1 1 1 1
7 8 8 9 8 7 6 5 4 3 3 2 2 2 2 2 2 2 2 2 2 2 2 2 2 2 1 1 0 0 1 1 1 2 2 2 1 1 1 1 1 1 2
8 9 10 9 8 7 6 5 4 3 3 3 3 2 2 2 2 2 2 2 2 2 2 2 2 2 2 1 1 0 1 1 1 2 2 1 1 1 1 1 2 2 2
10 10 9 9 9 8 7 6 5 4 4 4 3 3 3 3 3 3 3 3 3 3 2 2 2 2 2 1 1 0 1 1 1 1 1 1 1 0 0 1 1 2 2
12 11 10 9 9 8 7 6 6 5 5 5 4 3 3 4 4 4 4 3 3 3 2 2 2 2 2 1 1 0 1 1 1 1 1 1 0 0 0 0 0 1 1
12 11 10 10 9 9 8 7 6 5 5 4 4 4 4 5 5 5 4 4 3 3 2 2 2 2 2 1 1 0 0 0 1 1 1 0 0 0 0 0 0 0 0
10 9 9 9 9 9 8 7 6 5 4 4 5 6 7 6 5 5 4 4 3 3 2 2 2 2 2 1 1 0 0 0 0 0 0 0 0 0 0 0 0 0 0
8 8 8 8 9 9 9 8 7 7 7 7 8 8 8 6 5 4 4 4 3 3 2 2 2 2 2 2 1 1 0 0 0 0 0 0 0 0 0 0 0 0 0
9 9 8 8 9 9 8 8 7 8 9 9 8 7 5 4 3 3 3 3 3 3 2 2 2 2 2 1 0 0 0 1 1 0 0 0 0 0 0 0 0 0 0
9 9 8 8 9 8 8 6 6 7 8 7 6 4 2 2 3 3 3 3 3 2 2 2 2 1 1 0 0 0 0 0 0 0 0 0 0 0 0 0 0 0 0

GEFSMW_con_maxscp_180.txt.gz
SCP
6 7 7 6 8 11 12 11 9 8 8 7 6 5 3 2 2 3 3 3 3 2 2 1 1 2 2 2 1 1 1 1 1 1 1 1 1 1 1 1 1 1 1
7 8 9 7 8 11 12 11 9 8 8 7 6 5 4 3 2 3 3 3 3 2 2 2 2 2 2 2 2 1 1 1 1 1 1 1 1 1 1 1 1 1 1
8 9 9 8 8 9 10 9 8 7 7 7 6 5 4 3 3 3 3 3 3 2 2 2 2 2 2 2 2 1 1 1 1 1 1 1 1 1 1 1 1 1 1
8 8 8 8 7 7 7 7 7 7 7 7 6 5 4 4 4 3 3 3 3 3 2 2 2 3 3 2 1 1 1 1 1 1 1 1 1 1 1 1 1 1 1
7 7 8 8 7 6 6 7 7 7 6 6 6 5 5 4 4 4 4 4 3 3 2 2 2 3 3 2 2 2 2 1 1 1 1 1 1 1 1 1 1 1 1
6 7 8 7 6 6 7 7 8 7 7 6 6 6 5 5 5 5 5 5 3 3 2 2 2 3 3 3 3 3 3 2 2 2 2 2 2 2 2 1 1 1 1
5 6 6 5 5 5 7 8 8 8 7 5 5 5 6 5 5 5 5 4 3 2 2 2 3 3 3 3 4 4 4 4 3 3 3 2 3 2 2 2 1 1 1
5 5 5 4 4 5 6 8 9 9 7 5 5 5 5 5 5 5 4 4 3 2 2 3 4 4 4 4 4 4 4 4 3 3 3 3 3 3 2 2 2 1 1
5 5 5 4 4 4 5 7 10 10 8 6 5 4 4 4 4 4 3 3 3 2 3 3 4 4 4 4 4 4 4 4 3 2 2 3 3 3 3 2 2 1 1
4 4 5 5 4 4 5 7 10 10 8 7 5 4 4 4 4 4 4 4 4 4 4 4 4 4 4 4 4 4 4 3 3 2 2 2 3 3 2 2 2 2 1
3 4 5 5 5 5 6 8 10 10 8 6 5 4 4 4 4 4 5 6 6 6 6 5 4 4 4 4 4 4 3 3 2 2 2 2 2 2 2 2 2 1 1
3 4 5 5 6 7 8 9 9 8 6 5 5 4 4 4 4 4 6 7 7 7 7 7 6 5 5 4 4 3 2 2 2 2 2 2 2 2 2 2 1 1 1
4 5 6 7 8 9 10 9 9 8 6 5 5 5 5 5 4 4 5 6 7 7 8 7 7 5 4 4 3 2 2 2 2 2 2 2 2 2 2 1 1 1 1
6 7 8 9 10 11 11 11 11 10 7 6 5 5 5 5 5 5 5 5 6 6 7 7 6 5 3 3 2 2 2 2 2 2 1 1 1 1 1 1 1 1 1
8 9 10 11 11 12 13 13 13 11 8 6 5 5 6 6 6 5 5 5 5 5 5 5 5 4 3 2 2 2 2 2 2 1 1 1 1 1 1 1 1 1 1
10 11 11 11 11 12 13 13 12 9 8 7 7 7 7 7 6 5 5 5 4 4 4 4 4 3 3 2 2 2 2 2 2 1 1 1 1 1 0 0 0 1 1
11 12 13 11 10 12 14 14 12 11 10 11 11 10 8 7 6 5 5 5 5 4 4 4 4 3 2 1 1 1 2 2 2 1 1 1 1 1 0 0 0 0 0
12 14 13 11 10 12 16 19 18 17 16 15 13 11 9 7 6 6 6 6 5 5 4 4 4 3 2 1 1 1 2 2 1 1 1 1 1 1 1 0 0 0 0
15 14 12 11 11 14 20 26 26 23 18 14 11 9 8 7 6 6 7 7 6 6 5 5 4 3 2 1 1 1 2 2 1 1 1 1 1 1 1 1 1 1 1
15 13 12 13 14 17 24 29 28 23 16 11 8 7 7 6 6 7 7 7 7 7 7 5 4 3 2 1 1 1 2 2 1 1 1 1 1 1 1 1 1 1 1
15 15 16 17 17 19 25 28 24 18 13 9 7 6 6 7 7 8 8 8 8 8 7 5 4 3 2 1 1 1 1 1 1 1 1 1 0 0 0 0 1 1 1
18 19 20 20 18 18 22 24 20 17 14 11 8 7 6 6 7 8 7 8 8 7 6 5 4 3 3 2 1 0 0 0 1 1 1 0 0 0 0 0 0 0 0
17 18 18 17 15 15 18 20 19 19 18 14 10 7 6 5 5 6 5 5 6 5 4 4 4 4 4 3 1 0 0 0 0 0 0 0 0 0 0 0 0 0 0
12 12 12 12 12 13 14 15 17 20 21 17 11 7 5 4 4 4 4 4 4 4 4 4 4 4 5 4 2 0 0 0 0 0 0 0 0 0 0 0 0 0 0
9 9 9 10 10 11 11 11 15 21 23 18 11 6 4 3 3 3 3 3 3 3 3 3 4 4 5 4 2 0 0 0 0 0 0 0 0 0 0 0 0 0 0
8 8 8 8 9 10 10 10 14 22 24 19 11 6 4 3 3 3 3 2 2 2 2 2 3 3 4 3 1 0 0 0 0 0 0 0 0 0 0 0 0 0 0